Home   Weather   Baghlan   Past weeks

Flag for Afghanistan Past Weather in Baghlan, Afghanistan — Yesterday and Last 2 Weeks

46 °F


Feels Like: 45 °F
Forecast: 41 / 69 °F
Wind: 3 mph from South

Location: Termez Airport

Current Time: Oct 22, 2016 at 4:24:15 AM

Latest Report: Oct 22, 2016 at 3:30 AM

Visibility: 10 mi

Pressure: 30.27 "Hg (28.36 "Hg at 536m altitude)

Humidity: 50%

Dew Point: 28 °F

Location of BaghlanLocation

Past Weather in Baghlan — Graph


Baghlan Temperature Yesterday

Maximum temperature yesterday: 68 °F (at 1:30 PM)
Minimum temperature yesterday: 43 °F (at 5:30 AM)
Average temperature yesterday: 56 °F

High & Low Weather Summary for the Past Weeks

High86 °F (Oct 13, 2:00 PM)100% (Oct 12, 9:00 PM)30.42 "Hg (Oct 12, 9:00 PM)
Low43 °F (Oct 20, 3:30 AM)11% (Oct 13, 2:30 PM)29.86 "Hg (Oct 11, 3:00 PM)
Average64 °F41%30.08 "Hg
* Reported Oct 7 2:30 AM — Oct 22 3:00 AM, Baghlan, Weather by CustomWeather, © 2016

Note: Actual official high and low records may vary slightly from our data, if they occured in-between our weather recording intervals... More about our weather records


Baghlan Weather History for the Previous 24 Hours

Scroll right to see more
Time TempWeatherWind HumidityBarometerVisibility
3:00 AM
Sat, Oct 22
46 °FClear.6 mph50%30.27 "Hg10 mi
2:30 AM46 °FClear.6 mph50%30.27 "Hg10 mi
1:30 AM48 °FPassing clouds.6 mph50%30.24 "HgN/A
12:30 AM48 °FClear.7 mph46%30.24 "Hg10 mi
11:30 PM
Fri, Oct 21
52 °FClear.5 mph41%30.24 "Hg10 mi
10:30 PM52 °FClear.6 mph41%30.24 "Hg10 mi
10:00 PM54 °FClear.6 mph38%30.24 "Hg10 mi
9:30 PM55 °FClear.8 mph36%30.24 "Hg10 mi
9:00 PM54 °FClear.7 mph41%30.24 "Hg10 mi
8:30 PM54 °FClear.8 mph41%30.21 "Hg10 mi
8:00 PM52 °FClear.7 mph47%30.21 "Hg10 mi
7:30 PM54 °FClear.6 mph41%30.21 "Hg10 mi
7:00 PM54 °FClear.6 mph44%30.21 "Hg10 mi
6:30 PM54 °FPassing clouds.6 mph44%30.18 "HgN/A
6:00 PM57 °FClear.5 mph39%30.18 "Hg10 mi
5:30 PM59 °FClear.8 mph39%30.18 "Hg10 mi
5:00 PM61 °FSunny.5 mph36%30.15 "Hg10 mi
4:30 PM63 °FSunny.5 mph34%30.15 "Hg10 mi
4:00 PM64 °FSunny.6 mph30%30.15 "Hg10 mi
3:30 PM66 °FSunny.6 mph26%30.12 "Hg10 mi
3:00 PM66 °FPassing clouds.5 mph28%30.12 "HgN/A
2:30 PM68 °FSunny.2 mph26%30.12 "Hg10 mi
2:00 PM66 °FSunny.2 mph26%30.12 "Hg10 mi
1:30 PM68 °FSunny.1 mph23%30.15 "Hg10 mi
1:00 PM66 °FSunny.2 mph24%30.15 "Hg10 mi
12:30 PM64 °FSunny.1 mph24%30.15 "Hg10 mi
12:00 PM64 °FSunny.No wind24%30.18 "Hg10 mi
11:30 AM63 °FPassing clouds.3 mph24%30.18 "HgN/A
11:00 AM63 °FPassing clouds.3 mph22%30.21 "HgN/A
10:30 AM61 °FSunny.1 mph22%30.21 "Hg10 mi
10:00 AM59 °FSunny.1 mph25%30.21 "Hg10 mi
9:30 AM57 °FSunny.2 mph31%30.21 "Hg10 mi
9:00 AM54 °FPassing clouds.3 mph41%30.24 "HgN/A
8:30 AM50 °FScattered clouds.2 mph54%30.24 "HgN/A
8:00 AM50 °FScattered clouds.1 mph58%30.24 "HgN/A
7:30 AM46 °FScattered clouds.2 mph62%30.21 "HgN/A
7:00 AM43 °FScattered clouds.2 mph71%30.21 "HgN/A
6:30 AM43 °FPassing clouds.2 mph71%30.21 "HgN/A
5:30 AM43 °FPassing clouds.1 mph71%30.21 "HgN/A
4:30 AM46 °FPassing clouds.2 mph57%30.21 "HgN/A
Weather by CustomWeather, © 2016

See weather overviewHow to use our weather pages